Location: Asheville, NC
(35.6000°N, 82.5500°W)
Time: 04:58:59
(UTC-04:00)

Vanguard 3 - Pass Details

Date: 14 February 2018
Orbit: 508 x 3264 km, 33.4° (Epoch: 20 May)

Event Time Altitude Azimuth Distance (km) Brightness Sun altitude
Rises 22:28:28 0° 274° (W) 3,143 - -51.8°
Reaches altitude 10° 22:30:35 10° 265° (W) 2,430 - -52.2°
Maximum altitude 22:35:55 39° 197° (SSW) 1,638 - -53.1°
Drops below altitude 10° 22:44:48 10° 133° (SE) 4,051 - -54.7°
Sets 22:49:23 0° 127° (SE) 5,539 - -55.4°
